Weather in Pyatkovo

Russia / Tyumen Oblast     56°09′05″N   66°46′09″E
temp.,
°C
wind,
m/s
gust,
m/s
humid.,
%
clouds,
%
prec.,
mm/h
press.,
hPa
HPBL,
m
4 december, sat
sat423:00−3wsw71480100 0.0 1012734
02:00−4wsw6139112 0.0 1014498
05:00−4wsw513905 0.0 1017390
08:00−5wsw411945 0.0 1019248
11:00−4sw379462 0.0 1021196
14:00−2ssw499275 0.0 1020242
17:00−1s61591100 0.0 1019393
20:00−1ssw61496100 0.0 1018502
5 december, sun
sun523:000ssw7159584 0.0 1017458
02:000ssw7178855 0.0 1016484
05:00−1ssw71688100 0.0 1015499
08:00−1sw6158998 0.0 1014488
11:00−1sw61393100 0.1 1014507
14:000sw51191100 0.7 1012581
17:00−1sw51297100 2.4 1012542
20:00−1sw51098100 1.8 1012446
6 december, mon
mon623:00−1w4997100 2.3 1013513
02:00−4nnw479699 0.3 1015398
05:00−4nw3490100 0.3 1016347
08:00−6wsw0196100 0.0 101757
11:00−5w2495100 0.1 1017233
14:00−5w4893100 0.5 1017639
17:00−9wnw510858 0.7 1019502
20:00−13nw5109154 0.0 1022376
7 december, tue
tue723:00−15wnw389687 0.0 1024258
02:00−16wnw379764 0.0 1026182
05:00−17w259957 0.0 102876
08:00−18wsw239935 0.0 103050
11:00−14wsw36945 0.0 1031149
14:00−12wsw36925 0.0 1032204
17:00−16sw369734 0.0 103387
20:00−18wsw249954 0.0 103549
8 december, wed
wed823:00−19w2210057 0.0 103632
02:00−20w1110043 0.0 103713
05:00−20wsw221009 0.0 103921
08:00−20sw11100100 0.0 10399
11:00−15ssw2290100 0.0 104067
14:00−12ssw2586100 0.0 1039183
17:00−12s3789100 0.0 1039153
20:00−11s4119197 0.0 1038273